Regional Weather Roundup
Issued by NWS

Home | Current Version | Previous Version | Graphics & Text | Print | Product List | Glossary On
Versions: 1 2 3 4 5 6 7 8 9 10 11 12 13 14 15 16 17 18 19 20 21 22 23 24 25 26 27 28 29 30 31 32 33 34 35 36 37 38 39 40 41 42 43 44 45 46 47 48 49 50
000
ASUS43 KLSX 201859
RWRMO

WEATHER SUMMARY FOR MISSOURI
NATIONAL WEATHER SERVICE SPRINGFIELD MO
100 PM CST SAT DEC 20 2014

NOTE: "FAIR" INDICATES FEW OR NO CLOUDS BELOW 12,000 FEET WITH NO
       SIGNIFICANT WEATHER AND/OR OBSTRUCTIONS TO VISIBILITY.
       CURRENT SKY AND/OR WEATHER CONDITIONS ARE NOT AVAILABLE FOR
       CHILLICOTHE AND FARMINGTON.

MOZ001>031-035>038-043-044-053-054-202000-
...NORTHERN AND WESTERN MISSOURI...

CITY           SKY/WX    TMP DP  RH WIND       PRES   REMARKS
KANSAS CTY INT CLOUDY    43  38  82 SW13      30.11F
KANSAS C DTWN  PTSUNNY   46  37  71 S10       30.13F
LEE`S SUMMIT   CLOUDY    41  35  79 S9        30.14F
ST JOSEPH      CLOUDY    40  35  83 SW8       30.12F
CHILLICOTHE      N/A     37  34  89 S8        30.17F
KIRKSVILLE     CLOUDY    38  35  89 S7        30.17F

$$
MOZ066>068-077>081-088>096-101>105-202000-
...SOUTHWEST MISSOURI...

CITY           SKY/WX    TMP DP  RH WIND       PRES   REMARKS
SPRINGFIELD    CLOUDY    41  36  82 SW7       30.18F
JOPLIN         CLOUDY    44  35  70 SW8       30.20F

$$
MOZ032>034-039>042-045>050-055>058-069>072-202000-
...CENTRAL MISSOURI...

CITY           SKY/WX    TMP DP  RH WIND       PRES   REMARKS
COLUMBIA       CLOUDY    41  36  82 S5        30.19F
JEFFERSON CITY CLOUDY    42  35  76 S5        30.21F
ROLLA          CLOUDY    40  34  79 S6        30.18F
SEDALIA        CLOUDY    40  35  83 SW9       30.19F
WARRENSBURG    CLOUDY    37  34  87 S7        30.17F
OSAGE BEACH    CLOUDY    43  34  70 SW7       30.19F

$$
MOZ051-052-059>065-202000-
...EAST CENTRAL MISSOURI...

CITY           SKY/WX    TMP DP  RH WIND       PRES   REMARKS
ST LOUIS INTL  CLOUDY    42  32  67 SE3       30.23F
SPIRIT OF STL  CLOUDY    42  33  70 SE3       30.22F
ST CHARLES     CLOUDY    40  33  76 SE3       30.23F

$$
MOZ072>076-082>087-097>100-106>115-202000-
...SOUTH CENTRAL AND SOUTHEAST MISSOURI...

CITY           SKY/WX    TMP DP  RH WIND       PRES   REMARKS
CAPE GIRARDEAU CLOUDY    42  31  64 CALM      30.25F
FARMINGTON     CLOUDY    39  34  81 SE5       30.23F
POPLAR BLUFF   CLOUDY    42  31  64 S5        30.24F
WEST PLAINS    CLOUDY    42  36  79 NE3       30.20F

$$


USA.gov is the U.S. government's official web portal to all federal, state and local government web resources and services.